[[{"header":{"parameterUnit":"m.s-1","parameterCategory":1,"la1":30.2991,"la2":30.254,"lo1":-89.0895,"lo2":-89.0444,"dy":0.0017,"dx":0.0017,"nx":28,"ny":28,"refTime":"2024-02-25T03:00:00:Z","depth":0,"parameterNumber":2,"parameterNumberName":"U-component_of_WINDS"},"data":[0,0,0,0,0,0,0,0,0,0,0,0,0,0,0,0,0,0,0,0,0,0,0,0,0,0,0,0,0,0,0,0,0,0,0,0,0,0,0,0,0,0,0,0,0,0,0,0,0,0,0,0,0,0,0,0,0,0,-0.4916,-0.4916,0,-0.4966,-0.4967,-0.4968,-0.4977,-0.4977,-0.4976,-0.4976,-0.5029,-0.503,-0.5032,0,0,0,0,0,0,0,0,0,0,0,0,0,-0.4827,-0.4829,-0.4916,-0.4916,-0.4917,-0.4966,-0.4967,-0.4968,-0.4977,-0.4977,-0.4976,-0.4976,-0.5028,-0.503,-0.5032,0,0,0,0,0,0,0,0,0,0,0,0,0,-0.4871,-0.4829,-0.4915,-0.4927,-0.4929,-0.4966,-0.4967,-0.4968,-0.4977,-0.4977,-0.4976,-0.4975,-0.5027,-0.503,-0.5033,-0.5061,0,0,-0.5041,-0.5042,0,0,0,0,0,0,0,0,-0.4868,-0.4874,-0.4925,-0.4927,-0.4929,-0.4965,-0.4955,-0.4999,-0.4977,-0.4959,-0.4976,-0.4975,-0.5008,-0.5012,-0.5023,-0.5064,-0.5066,-0.5041,-0.5043,-0.5044,-0.5044,0,0,0,0,0,0,0,-0.4865,-0.4872,-0.4936,-0.4926,-0.4928,-0.4931,-0.4936,-0.4964,-0.4986,-0.4961,-0.4961,-0.4967,-0.5009,-0.502,-0.5024,-0.5067,-0.5041,-0.5043,-0.5045,-0.5046,-0.5135,-0.5135,0,0,0,0,0,0,-0.486,-0.4869,-0.4934,-0.4937,-0.4896,-0.4933,-0.4939,-0.4954,-0.4986,-0.499,-0.4968,-0.4967,-0.5016,-0.5021,-0.5026,-0.5063,-0.5044,-0.5046,-0.5048,-0.5134,-0.5135,-0.5136,0,0,0,0,0,0,-0.4858,-0.4866,-0.4932,-0.4904,-0.4912,-0.4935,-0.4952,-0.4955,-0.4967,-0.4991,-0.4996,-0.4975,-0.5016,-0.5022,-0.5053,-0.5065,-0.5047,-0.505,-0.5133,-0.5134,-0.5135,-0.5135,0,0,0,0,0,0,-0.4855,-0.4865,-0.4876,-0.4904,-0.4914,-0.4957,-0.4952,-0.4957,-0.4971,-0.4972,-0.5,-0.5004,-0.5016,-0.5049,-0.5055,-0.5068,-0.5052,-0.5132,-0.5134,-0.5135,-0.5134,-0.5136,-0.5138,0,0,0,0,0,-0.4852,-0.4874,-0.4876,-0.4884,-0.4928,-0.4958,-0.4964,-0.4977,-0.4972,-0.4984,-0.5,-0.5003,-0.5062,-0.5052,-0.5059,-0.5073,-0.5131,-0.5133,-0.5135,-0.5133,-0.5136,-0.5138,0,0,0,0,0,0,-0.4847,-0.4878,-0.4881,-0.4912,-0.4932,-0.496,-0.4974,-0.4979,-0.5001,-0.5001,-0.5016,-0.5022,-0.5052,-0.5065,-0.5053,-0.5103,-0.5096,-0.51,-0.5093,-0.5095,-0.5097,-0.5093,-0.5054,0,0,0,0,0,-0.485,-0.4871,-0.4897,-0.4922,-0.4932,-0.4952,-0.4965,-0.4974,-0.4995,-0.5004,-0.5022,-0.5043,-0.5067,-0.5082,-0.5104,-0.5136,-0.5143,-0.5149,-0.5151,-0.5152,-0.5155,-0.5173,-0.5177,-0.5141,-0.5141,-0.5141,0,0,-0.4855,-0.4875,-0.4887,-0.4922,-0.4938,-0.4961,-0.4959,-0.4983,-0.5,-0.5008,-0.5037,-0.5051,-0.5076,-0.5107,-0.5122,-0.5119,-0.5166,-0.5155,-0.5155,-0.5158,-0.5175,-0.5179,-0.5182,-0.5142,-0.5142,-0.5142,0,0,-0.4877,-0.4893,-0.4916,-0.4933,-0.4958,-0.4971,-0.4977,-0.5003,-0.5013,-0.5043,-0.5049,-0.507,-0.511,-0.5127,-0.5141,-0.5169,-0.5173,-0.5176,-0.5186,-0.5203,-0.5206,-0.5209,-0.5219,-0.5222,-0.5179,-0.5179,-0.5179,0,-0.488,-0.4914,-0.4927,-0.4951,-0.4966,-0.4975,-0.4998,-0.5014,-0.5045,-0.5056,-0.5052,-0.5103,-0.512,-0.5155,-0.5162,-0.5173,-0.518,-0.5173,-0.5205,-0.5207,-0.521,-0.522,-0.5224,-0.5179,-0.5179,-0.5179,-0.5179,0,-0.4917,-0.4941,-0.4956,-0.4987,-0.5003,-0.5027,-0.5044,-0.506,-0.5067,-0.508,-0.511,-0.5131,-0.5158,-0.5167,-0.5175,-0.5204,-0.5202,-0.5201,-0.5195,-0.5213,-0.5223,-0.5227,-0.5179,-0.5179,-0.5179,-0.5179,0,0,-0.4937,-0.4974,-0.498,-0.4994,-0.5023,-0.5041,-0.5065,-0.5092,-0.5105,-0.5126,-0.5147,-0.518,-0.518,-0.5196,-0.5205,-0.5221,-0.5242,-0.5218,-0.5219,-0.5222,-0.5276,-0.5277,-0.5281,-0.5245,-0.5246,-0.5246,-0.5274,0,-0.4962,-0.5005,-0.5018,-0.5054,-0.5076,-0.5084,-0.5105,-0.5125,-0.5138,-0.5159,-0.5174,-0.5197,-0.5195,-0.5205,-0.522,-0.5236,-0.5253,-0.5234,-0.5265,-0.5265,-0.5258,-0.5286,-0.5286,-0.5312,-0.5278,-0.5279,-0.5279,0,-0.4997,-0.5019,-0.5057,-0.5084,-0.5093,-0.5112,-0.5137,-0.5157,-0.518,-0.5188,-0.5206,-0.5214,-0.524,-0.5232,-0.5268,-0.5255,-0.5268,-0.5278,-0.5279,-0.5282,-0.5273,-0.529,-0.532,-0.5324,-0.5285,-0.5285,-0.5284,0,-0.5008,-0.5047,-0.5075,-0.5087,-0.5118,-0.5131,-0.5144,-0.5167,-0.5182,-0.5204,-0.5215,-0.524,-0.5253,-0.5273,-0.5287,-0.528,-0.5322,-0.5315,-0.533,-0.5329,-0.5338,-0.5338,-0.5371,-0.5346,-0.5346,-0.5346,-0.5346,0,-0.5035,-0.5058,-0.5081,-0.5098,-0.5124,-0.5139,-0.5165,-0.5179,-0.5198,-0.5219,-0.5227,-0.5246,-0.5264,-0.5286,-0.5297,-0.5325,-0.5331,-0.5339,-0.5342,-0.5338,-0.5337,-0.5347,-0.5346,-0.5347,-0.5347,-0.5347,-0.5347,0,-0.5051,-0.5068,-0.5099,-0.5126,-0.5133,-0.5151,-0.5174,-0.5191,-0.5205,-0.523,-0.5237,-0.5258,-0.5284,-0.53,-0.5333,-0.5341,-0.5371,-0.5374,-0.5364,-0.5365,-0.5378,-0.5377,-0.5419,-0.5426,-0.5397,-0.5397,-0.5397,0,-0.5067,-0.5085,-0.5114,-0.5128,-0.5142,-0.5165,-0.518,-0.5196,-0.5212,-0.5239,-0.5253,-0.5279,-0.5301,-0.5342,-0.536,-0.5385,-0.5388,-0.5401,-0.5392,-0.5388,-0.5389,-0.5387,-0.5389,-0.5403,-0.5403,-0.5403,-0.5403,0,-0.5094,-0.5102,-0.5124,-0.5149,-0.5167,-0.5188,-0.5208,-0.5219,-0.5238,-0.5255,-0.5282,-0.5299,-0.5332,-0.5358,-0.5385,-0.5399,-0.5405,-0.5406,-0.5411,-0.5408,-0.5401,-0.5405,-0.5368,-0.5405,-0.5405,-0.5405,-0.5405,-0.5405,-0.5111,-0.5128,-0.5151,-0.5175,-0.5192,-0.5211,-0.5229,-0.5244,-0.5266,-0.5295,-0.5302,-0.533,-0.5353,-0.5389,-0.5404,-0.5426,-0.5424,-0.5431,-0.5433,-0.5434,-0.5434,-0.5397,-0.5431,-0.5431,-0.5431,-0.5431,-0.5431,0,-0.5139,-0.5154,-0.5176,-0.5205,-0.5224,-0.5227,-0.525,-0.5266,-0.529,-0.5311,-0.5332,-0.5363,-0.5388,-0.5408,-0.5434,-0.5448,-0.5451,-0.5454,-0.5454,-0.5457,-0.5434,-0.5428,-0.5451,-0.5451,-0.5451,-0.5451,-0.5451,-0.5451,-0.5156,-0.5184,-0.5194,-0.523,-0.5245,-0.5272,-0.5285,-0.5303,-0.5319,-0.5353,-0.5374,-0.5387,-0.5408,-0.5435,-0.5459,-0.5464,-0.5473,-0.5476,-0.5482,-0.5461,-0.5458,-0.5456,-0.545,-0.5478,-0.5478,-0.5503,-0.5503,-0.5503]},{"header":{"parameterUnit":"m.s-1","parameterCategory":1,"la1":30.2991,"la2":30.254,"lo1":-89.0895,"lo2":-89.0444,"dy":0.0017,"dx":0.0017,"nx":28,"ny":28,"refTime":"2024-02-25T03:00:00:Z","depth":0,"parameterNumber":3,"parameterNumberName":"V-component_of_WINDS"},"data":[0,0,0,0,0,0,0,0,0,0,0,0,0,0,0,0,0,0,0,0,0,0,0,0,0,0,0,0,0,0,0,0,0,0,0,0,0,0,0,0,0,0,0,0,0,0,0,0,0,0,0,0,0,0,0,0,0,0,-1.7945,-1.7946,0,-1.8036,-1.8038,-1.8039,-1.8059,-1.8058,-1.8058,-1.8057,-1.815,-1.8153,-1.8156,0,0,0,0,0,0,0,0,0,0,0,0,0,-1.7786,-1.7789,-1.7945,-1.7946,-1.7947,-1.8036,-1.8038,-1.8039,-1.8059,-1.8058,-1.8058,-1.8057,-1.8149,-1.8153,-1.8156,0,0,0,0,0,0,0,0,0,0,0,0,0,-1.7864,-1.779,-1.7944,-1.7968,-1.7971,-1.8036,-1.8038,-1.8039,-1.8059,-1.8058,-1.8057,-1.8057,-1.8148,-1.8152,-1.8157,-1.8205,0,0,-1.8171,-1.8173,0,0,0,0,0,0,0,0,-1.786,-1.787,-1.7963,-1.7966,-1.797,-1.8035,-1.8016,-1.8095,-1.806,-1.8026,-1.8057,-1.8056,-1.8113,-1.812,-1.8139,-1.8209,-1.8213,-1.8171,-1.8174,-1.8176,-1.8177,0,0,0,0,0,0,0,-1.7854,-1.7866,-1.7981,-1.7965,-1.7969,-1.7974,-1.7984,-1.8031,-1.8073,-1.8029,-1.803,-1.8041,-1.8114,-1.8135,-1.8142,-1.8214,-1.8171,-1.8175,-1.8178,-1.818,-1.8329,-1.833,0,0,0,0,0,0,-1.7845,-1.7862,-1.7978,-1.7984,-1.7911,-1.7977,-1.7988,-1.8015,-1.8073,-1.8081,-1.8042,-1.8042,-1.8127,-1.8136,-1.8145,-1.8205,-1.8176,-1.818,-1.8183,-1.8327,-1.8329,-1.833,0,0,0,0,0,0,-1.7842,-1.7855,-1.7974,-1.7923,-1.7939,-1.7981,-1.8011,-1.8018,-1.8038,-1.8083,-1.8091,-1.8055,-1.8127,-1.8139,-1.819,-1.8209,-1.8182,-1.8187,-1.8326,-1.8328,-1.8329,-1.8326,0,0,0,0,0,0,-1.7837,-1.7854,-1.7873,-1.7923,-1.7941,-1.8018,-1.8012,-1.802,-1.8046,-1.8047,-1.8097,-1.8105,-1.8127,-1.8183,-1.8194,-1.8215,-1.819,-1.8324,-1.8327,-1.8329,-1.8324,-1.8327,-1.8329,0,0,0,0,0,-1.7831,-1.7868,-1.7873,-1.7887,-1.7966,-1.8019,-1.8029,-1.8054,-1.8048,-1.8067,-1.8096,-1.8103,-1.8205,-1.8188,-1.8201,-1.8223,-1.8323,-1.8326,-1.8329,-1.8323,-1.8327,-1.8329,0,0,0,0,0,0,-1.7817,-1.7875,-1.7882,-1.7936,-1.7972,-1.8022,-1.8047,-1.8057,-1.8096,-1.8095,-1.8124,-1.8136,-1.8185,-1.8209,-1.819,-1.8273,-1.8264,-1.8269,-1.8255,-1.8259,-1.8261,-1.8254,-1.8194,0,0,0,0,0,-1.782,-1.7859,-1.7907,-1.795,-1.7968,-1.8004,-1.8028,-1.8045,-1.8084,-1.8099,-1.8132,-1.8169,-1.821,-1.8235,-1.8275,-1.8328,-1.8339,-1.8349,-1.8352,-1.8354,-1.8358,-1.8388,-1.8393,-1.8339,-1.8339,-1.8339,0,0,-1.7827,-1.7864,-1.7886,-1.7948,-1.7978,-1.8018,-1.8017,-1.8059,-1.8088,-1.8106,-1.8156,-1.8181,-1.8225,-1.8277,-1.8302,-1.8299,-1.8376,-1.8357,-1.8358,-1.8362,-1.8392,-1.8397,-1.8401,-1.8341,-1.834,-1.834,0,0,-1.786,-1.7891,-1.7931,-1.7961,-1.8008,-1.8032,-1.8041,-1.809,-1.8107,-1.8159,-1.8173,-1.8208,-1.8277,-1.8308,-1.8332,-1.8377,-1.8386,-1.8389,-1.8403,-1.8432,-1.8436,-1.844,-1.8456,-1.8462,-1.8393,-1.8393,-1.8393,0,-1.7863,-1.7923,-1.795,-1.7991,-1.8018,-1.8036,-1.8076,-1.8104,-1.8161,-1.8179,-1.8175,-1.8262,-1.8292,-1.8352,-1.8363,-1.8383,-1.8394,-1.8384,-1.8433,-1.8438,-1.8442,-1.8457,-1.8463,-1.8394,-1.8393,-1.8393,-1.8393,0,-1.7924,-1.7965,-1.7992,-1.8046,-1.8076,-1.8117,-1.8149,-1.8176,-1.819,-1.8215,-1.8267,-1.8305,-1.8352,-1.8368,-1.8381,-1.843,-1.8427,-1.8427,-1.8419,-1.8447,-1.8462,-1.8468,-1.8394,-1.8394,-1.8394,-1.8394,0,0,-1.795,-1.802,-1.8029,-1.8054,-1.8107,-1.8139,-1.818,-1.8227,-1.825,-1.8289,-1.8324,-1.8382,-1.8383,-1.8411,-1.8429,-1.8454,-1.8488,-1.8452,-1.8454,-1.8457,-1.8544,-1.8543,-1.8549,-1.8494,-1.8495,-1.8496,-1.854,0,-1.7989,-1.8064,-1.8089,-1.8151,-1.819,-1.8208,-1.8244,-1.828,-1.8304,-1.834,-1.8367,-1.8408,-1.8406,-1.8423,-1.8449,-1.8478,-1.8505,-1.8475,-1.8527,-1.8528,-1.8515,-1.8557,-1.8557,-1.8596,-1.8546,-1.8547,-1.8548,0,-1.8045,-1.8085,-1.815,-1.8199,-1.8216,-1.8248,-1.8293,-1.8328,-1.8369,-1.8385,-1.8416,-1.8432,-1.8476,-1.8465,-1.8526,-1.8505,-1.8527,-1.8545,-1.8547,-1.8553,-1.854,-1.8564,-1.861,-1.8615,-1.8558,-1.8557,-1.8556,0,-1.8057,-1.8127,-1.8176,-1.8197,-1.8254,-1.8277,-1.8301,-1.8342,-1.8369,-1.8409,-1.8426,-1.847,-1.8494,-1.8528,-1.8555,-1.8545,-1.8614,-1.8605,-1.8628,-1.8627,-1.8641,-1.864,-1.8691,-1.8656,-1.8656,-1.8656,-1.8656,0,-1.8098,-1.8138,-1.8182,-1.8212,-1.8257,-1.8286,-1.833,-1.8356,-1.8392,-1.8427,-1.8445,-1.8477,-1.8511,-1.8548,-1.857,-1.8617,-1.8628,-1.8642,-1.8647,-1.864,-1.8638,-1.8655,-1.8653,-1.8657,-1.8657,-1.8657,-1.8656,0,-1.812,-1.8151,-1.8205,-1.8256,-1.8269,-1.83,-1.8343,-1.8373,-1.8398,-1.8442,-1.8454,-1.8493,-1.8538,-1.8568,-1.8625,-1.864,-1.8691,-1.8695,-1.8677,-1.8679,-1.8701,-1.8698,-1.8764,-1.8774,-1.8732,-1.8732,-1.8733,0,-1.8144,-1.8175,-1.8229,-1.8254,-1.8279,-1.8319,-1.8347,-1.8377,-1.8405,-1.8455,-1.8478,-1.8524,-1.8562,-1.8632,-1.8666,-1.871,-1.8716,-1.8736,-1.8722,-1.8715,-1.8716,-1.8714,-1.8717,-1.8738,-1.8738,-1.8738,-1.8738,0,-1.8183,-1.8198,-1.8237,-1.8282,-1.8315,-1.8352,-1.8389,-1.8408,-1.8445,-1.8476,-1.8522,-1.8551,-1.861,-1.8655,-1.8702,-1.8728,-1.8739,-1.8742,-1.875,-1.8743,-1.8731,-1.8738,-1.8683,-1.8741,-1.874,-1.874,-1.874,-1.874,-1.8207,-1.8236,-1.8278,-1.8322,-1.8353,-1.8387,-1.8418,-1.8447,-1.8486,-1.8536,-1.8551,-1.8599,-1.864,-1.8705,-1.8731,-1.8769,-1.8767,-1.8778,-1.8781,-1.8783,-1.8783,-1.8725,-1.8777,-1.8777,-1.8777,-1.8777,-1.8777,0,-1.8248,-1.8276,-1.8316,-1.8367,-1.8402,-1.841,-1.8452,-1.848,-1.8522,-1.8559,-1.8597,-1.865,-1.8694,-1.8731,-1.8777,-1.88,-1.8807,-1.8811,-1.881,-1.8815,-1.8782,-1.8771,-1.8805,-1.8805,-1.8805,-1.8805,-1.8805,-1.8805,-1.8273,-1.8321,-1.8341,-1.8405,-1.8434,-1.8481,-1.8504,-1.8536,-1.8566,-1.8625,-1.8662,-1.8686,-1.8723,-1.8772,-1.8813,-1.8823,-1.8839,-1.8842,-1.8853,-1.8821,-1.8818,-1.8815,-1.8804,-1.8845,-1.8845,-1.8884,-1.8884,-1.8884]}]]